Location: Wayah Bald
(35.1806°N, 83.5603°W)
Time: 22:59:31
(UTC-04:00)

Daily predictions for brighter satellites

Satellite Brightness Start Highest point End
(mag) Time Altitude Azimuth Time Altitude Azimuth Time Altitude Azimuth
Meteor 2-21 4.5 20:24:32 10° S 20:30:42 75° E 20:36:51 10° N
Helios 1A 2.9 20:28:50 10° SSE 20:32:59 77° ENE 20:37:10 10° N
SJ-6B 4.0 20:31:37 10° S 20:35:12 45° W 20:38:49 10° NNW
Meteor 1-23 Rocket 4.3 20:30:18 10° N 20:35:53 60° E 20:41:31 10° SSE
NOSS 3-4 (A) 4.2 20:30:33 10° NNW 20:37:22 48° NE 20:44:32 10° SE
NOSS 3-4 (C) 4.2 20:30:41 10° NNW 20:37:29 48° NE 20:44:38 10° SE
Cosmos 2208 Rocket 4.0 20:37:44 10° S 20:42:58 66° ESE 20:48:18 10° NNE
CZ-2D R/B 3.9 20:42:00 10° SE 20:45:32 36° ENE 20:49:07 10° N
FengYun 1-2 T 4.3 20:40:40 10° SSE 20:46:17 73° ENE 20:51:53 10° N
Meteor 2-14 Rocket 4.4 20:41:44 10° S 20:47:50 74° E 20:53:59 10° N
Spot 2 Rocket 3.8 20:43:48 10° S 20:48:53 71° WSW 20:53:58 10° NNW
OAO 2 Rocket 3.4 20:43:58 10° WSW 20:48:55 67° SSE 20:53:59 10° E
Cosmos 1461 3.9 20:45:52 10° N 20:49:24 28° NE 20:52:18 13° ESE
Cosmos 1025 Rocket 3.3 20:45:18 10° NNW 20:49:39 71° W 20:53:56 10° S
Hubble Space Telescope 2.3 20:46:55 10° WSW 20:50:20 24° SSW 20:53:43 10° SE
Cosmos 1892 Rocket 3.5 20:48:06 10° N 20:52:36 73° E 20:57:03 10° SSE
Cosmos 2123 Rocket 4.2 20:46:46 10° N 20:52:46 51° E 20:58:44 10° SSE
Cosmos 1455 Rocket 3.0 20:49:43 10° S 20:53:59 66° E 20:58:18 10° NNE
FENGYUN 3A 3.8 20:49:04 10° SSE 20:54:17 57° ENE 20:59:32 10° N
ATLAS 3B CENTAUR R/B 2.2 20:53:55 10° SW 20:54:47 12° S 20:55:34 10° SSE
Cosmos 1656 4.1 20:52:58 10° S 20:58:08 38° ESE 21:03:15 10° NE
Cosmos 1570 Rocket 4.2 20:53:30 10° SSW 20:58:48 80° WNW 21:04:07 10° NNE
Resurs 1-3 3.9 20:54:29 10° S 20:58:50 70° WSW 21:03:13 10° NNW
Cosmos 2227 Rocket 2.6 20:54:04 10° N 20:59:31 46° ENE 21:04:23 13° SE
CZ-4B DEB 2.8 20:57:48 10° S 21:01:03 85° WSW 21:04:21 10° NNW
Cosmos 1602 Rocket 4.5 20:57:50 10° NNE 21:01:45 29° ENE 21:04:39 15° SE
Cosmos 1500 4.4 21:02:27 17° ESE 21:03:56 21° E 21:06:49 10° NE
Cosmos 1346 Rocket 2.7 21:01:23 10° N 21:05:20 68° E 21:09:18 10° SSE
NOSS 7 (H) 4.3 21:01:55 10° SSW 21:05:20 85° NW 21:08:40 10° NNE
Meteor 1-5 Rocket 4.3 21:03:01 10° SSW 21:08:19 76° W 21:13:46 10° N
ALOS 2.2 21:04:31 10° SSE 21:09:11 85° ENE 21:13:53 10° N
Iridium 4 Rocket 3.9 21:06:38 10° NNE 21:11:14 36° E 21:14:16 17° SE
Cosmos 2082 3.8 21:08:15 10° NNW 21:13:47 57° ENE 21:18:05 17° SE
Cosmos 2297 Rocket 2.6 21:09:34 10° N 21:14:59 44° ENE 21:18:31 20° SE
CZ-4B DEB 4.5 21:13:45 10° SSE 21:17:21 84° ENE 21:21:00 10° N
Cosmos 1934 Rocket 4.4 21:12:12 10° SSW 21:18:15 66° W 21:24:26 10° N
Resurs 01 Rocket 3.6 21:14:33 10° SSW 21:18:26 30° W 21:22:22 10° NW
RESURS DK-1 4.4 21:18:57 10° NNE 21:20:57 13° NE 21:21:23 13° ENE
CZ-3C R/B 3.9 20:16:23 10° W 21:21:33 45° SSW 21:28:27 18° SE
USA 186 1.7 21:21:36 15° S 21:24:13 78° W 21:27:14 10° NNW
BREEZE-M DEB (TANK) 4.5 21:04:04 10° SW 21:26:53 88° SSE 21:32:17 10° ENE
DELTA 2 R/B (1) 3.9 21:22:04 10° WNW 21:27:36 62° N 21:31:01 23° E
Delta 2 Rocket 4.0 21:22:26 10° W 21:28:04 68° SSW 21:30:45 29° ESE
Cosmos 1515 4.1 21:26:23 10° N 21:30:02 41° E 21:30:47 36° ESE
ERS-1 Rocket 3.3 21:27:56 26° SE 21:30:23 45° ENE 21:35:10 10° N
Cosmos 1743 3.9 21:40:00 27° ENE 21:40:00 27° ENE 21:42:25 10° NNE
OTV 4 0.3 21:38:14 10° WNW 21:41:08 84° WSW 21:41:08 84° WSW
Cosmos 1898 Rocket 3.9 21:36:52 10° N 21:41:57 46° ENE 21:43:26 36° ESE
Cosmos 1763 Rocket 4.5 21:43:23 26° ENE 21:43:23 26° ENE 21:46:31 10° NE
Lacrosse 5 3.1 21:42:33 10° NNW 21:46:51 27° NE 21:48:07 24° ENE
Tiangong 1 3.1 21:44:52 10° NW 21:47:14 20° N 21:47:55 18° NNE
Cosmos 2016 Rocket 4.4 21:47:11 34° ESE 21:48:29 38° E 21:54:06 10° NNE
Cosmos 1066 Rocket 4.3 21:42:56 10° N 21:48:34 59° E 21:50:49 36° SE
Cosmos 1697 Rocket 2.6 21:43:34 10° SSW 21:49:12 81° ESE 21:54:52 10° NNE
SPOT 5 3.7 21:50:57 33° ENE 21:51:10 34° ENE 21:55:33 10° N
Cosmos 1975 3.9 21:49:29 10° SSW 21:53:27 47° W 21:57:25 10° N
Cosmos 468 Rocket 3.9 21:50:57 10° SSW 21:56:04 86° WNW 22:01:14 10° NNE
Cosmos 2173 Rocket 3.9 21:56:18 19° S 22:00:58 72° E 22:07:18 10° N
Cosmos 841 Rocket 4.3 22:05:13 34° ENE 22:05:13 34° ENE 22:08:33 10° NNE
Cosmos 1814 Rocket 4.0 22:00:03 10° SSW 22:05:23 85° WNW 22:10:44 10° NNE
Lacrosse 5 rocket 1.3 22:02:17 10° NW 22:05:31 65° WNW 22:05:31 65° WNW
Cosmos 972 Rocket 4.4 22:04:20 10° N 22:10:23 69° ENE 22:12:04 50° SE
CZ-4 DEB 4.2 22:11:14 36° W 22:11:14 36° W 22:13:51 10° NNW
ARGOS 4.3 22:12:12 28° NE 22:12:12 28° NE 22:16:03 10° N
Cosmos 1980 Rocket 2.0 22:06:09 10° SSW 22:11:46 75° ESE 22:17:28 10° NNE
Cosmos 2100 Rocket 4.0 22:07:11 12° S 22:13:01 83° W 22:19:18 10° N
Cosmos 1825 Rocket 4.0 22:08:57 10° N 22:12:29 50° NE 22:12:29 50° NE
Cosmos 2061 Rocket 4.0 22:12:26 20° S 22:17:01 85° W 22:23:19 10° N
H-2A R/B 2.5 22:23:38 53° N 22:23:38 53° N 22:26:50 10° NNW
Terra 4.3 22:28:05 11° NE 22:28:05 11° NE 22:28:25 10° NNE
Cosmos 1939 Rocket 3.7 22:26:46 46° W 22:26:48 46° W 22:30:49 10° NNW
MetOp-B 4.1 22:28:30 67° NE 22:28:30 67° NE 22:33:32 10° N
Milstar 3 Cent rocket 4.0 22:10:22 10° W 22:30:36 62° SSW 22:34:14 46° SE
OAO 2 Rocket 3.5 22:28:38 10° W 22:33:01 67° W 22:33:01 67° W
Envisat 3.7 22:37:26 44° SW 22:38:13 48° W 22:43:08 10° NNW
ASTEX 1 3.7 22:35:04 10° N 22:39:19 63° NNW 22:39:19 63° NNW
Meteor 1-21 4.2 22:37:08 10° N 22:42:53 82° W 22:42:53 82° W
Cosmos 2227 Rocket 4.3 22:39:06 10° NW 22:43:08 20° W 22:46:15 13° SW
Cosmos 2263 Rocket 4.2 22:39:47 10° NNE 22:41:51 15° NE 22:41:51 15° NE
Cosmos 2322 Rocket 4.2 22:48:05 17° NE 22:48:05 17° NE 22:49:19 10° NNE
H-2A R/B 3.8 22:48:51 20° NNE 22:48:51 20° NNE 22:50:45 10° N
Cosmos 1937 Rocket 3.9 22:41:38 10° NNW 22:46:32 59° W 22:46:32 59° W
Cosmos 1725 Rocket 4.0 22:47:52 72° NNE 22:47:52 72° NNE 22:53:29 10° N
Cosmos 2360 4.4 22:53:09 68° NW 22:53:09 68° NW 22:58:32 10° NNE
Cosmos 2297 Rocket 4.1 22:54:28 10° NW 22:58:38 21° W 23:00:22 19° SW
Cosmos 2098 Rocket 4.2 22:58:17 65° SW 22:59:08 73° W 23:05:18 10° N
RESURS DK-1 4.4 22:55:17 10° NW 22:57:19 26° NW 22:57:19 26° NW
SPOT 1/Viking Rocket 4.5 23:07:00 45° NNW 23:07:00 45° NNW 23:10:35 10° NNW
Lacrosse 5 3.9 23:25:08 10° NW 23:27:19 24° WNW 23:27:19 24° WNW
SL-16 R/B 4.0 23:42:47 25° N 23:42:47 25° N 23:45:09 10° NNE
USA 215 4.0 23:47:44 48° NNW 23:47:44 48° NNW 23:52:28 10° NW
